Location: ??????
(31.2056°N, 45.3906°E)
Time: 20:01:17
(UTC+00:00)

Centaur AC-42 - Pass Details

Date: 09 April 2020
Orbit: 643 x 36244 km, 20.8° (Epoch: 22 May)

Event Time Altitude Azimuth Distance (km) Brightness Sun altitude
Rises 16:29:49 0° 257° (WSW) 4,649 7.1 -14.6°
Reaches altitude 10° 16:34:05 10° 243° (WSW) 2,615 5.4 -15.5°
Maximum altitude 16:37:55 23° 187° (S) 1,382 3.2 -16.3°
Enters shadow 16:39:15 19° 155° (SSE) 1,497 3.1 -16.5°
